• In Belgium
  • List of Countries
  • For 7 days
  • Water Temperature
  • Satellite Maps
  • Weather Map
  • Weather Widgets
  • user-avatar
    Login

    Hourly Weather Andenne

    Today, 20 June, Wednesday

    Time Temperature Precipitation Wind Pressure Humidity
    00:00 +16°C° 0 mm 1 mps 757 mmHg 95%
    01:00 +16°C° 0 mm 1 mps 757 mmHg 96%
    02:00 +15°C° 0 mm 1 mps 757 mmHg 96%
    03:00 +15°C° 0 mm 1 mps 757 mmHg 96%
    04:00 +16°C° 0 mm 1 mps 757 mmHg 94%
    05:00 +18°C° 0 mm 1 mps 757 mmHg 93%
    06:00 +19°C° 0 mm 1 mps 757 mmHg 91%
    07:00 +21°C° 0 mm 1 mps 756 mmHg 84%
    08:00 +21°C° 0 mm 2 mps 756 mmHg 78%
    09:00 +24°C° 0 mm 2 mps 756 mmHg 71%
    10:00 +25°C° 0 mm 2 mps 756 mmHg 70%
    11:00 +25°C° 0 mm 2 mps 756 mmHg 68%
    12:00 +26°C° 0 mm 2 mps 756 mmHg 67%
    13:00 +26°C° 0 mm 3 mps 755 mmHg 67%
    14:00 +26°C° 0 mm 3 mps 755 mmHg 68%
    15:00 +26°C° 0 mm 3 mps 755 mmHg 68%
    16:00 +25°C° 0 mm 3 mps 755 mmHg 71%
    17:00 +25°C° 0 mm 2 mps 754 mmHg 75%
    18:00 +24°C° 0 mm 2 mps 754 mmHg 79%
    19:00 +21°C° 0 mm 2 mps 754 mmHg 83%
    20:00 +20°C° 0 mm 2 mps 754 mmHg 88%
    21:00 +19°C° 0 mm 1 mps 754 mmHg 93%
    22:00 +18°C° 0 mm 1 mps 754 mmHg 94%
    23:00 +17°C° 0 mm 2 mps 754 mmHg 95%

    Tomorrow, 21 June, Thursday

    Time Temperature Precipitation Wind Pressure Humidity
    00:00 +16°C° 0 mm 2 mps 754 mmHg 96%
    01:00 +16°C° 0 mm 2 mps 753 mmHg 96%
    02:00 +15°C° 0 mm 2 mps 753 mmHg 96%
    03:00 +15°C° 0 mm 2 mps 753 mmHg 97%
    04:00 +14°C° 0 mm 3 mps 753 mmHg 96%
    05:00 +16°C° 0 mm 3 mps 753 mmHg 94%
    06:00 +15°C° 0 mm 4 mps 753 mmHg 93%
    07:00 +15°C° 0.1 mm 5 mps 753 mmHg 90%
    08:00 +15°C° 0.1 mm 5 mps 754 mmHg 86%
    09:00 +15°C° 0.1 mm 6 mps 754 mmHg 82%
    10:00 +16°C° 0 mm 6 mps 755 mmHg 73%
    11:00 +16°C° 0 mm 6 mps 755 mmHg 65%
    12:00 +17°C° 0 mm 7 mps 755 mmHg 57%
    13:00 +17°C° 0 mm 7 mps 755 mmHg 56%
    14:00 +17°C° 0 mm 7 mps 756 mmHg 55%
    15:00 +16°C° 0 mm 6 mps 756 mmHg 54%
    16:00 +15°C° 0 mm 6 mps 756 mmHg 58%
    17:00 +14°C° 0 mm 6 mps 757 mmHg 63%
    18:00 +14°C° 0 mm 5 mps 757 mmHg 67%
    19:00 +12°C° 0 mm 4 mps 758 mmHg 72%
    20:00 +11°C° 0 mm 4 mps 758 mmHg 78%
    21:00 +9°C° 0 mm 3 mps 759 mmHg 83%
    22:00 +9°C° 0 mm 3 mps 759 mmHg 85%
    23:00 +8°C° 0 mm 2 mps 759 mmHg 87%

    Day after tomorrow, 22 June, Friday

    Time Temperature Precipitation Wind Pressure Humidity
    00:00 +7°C° 0 mm 2 mps 759 mmHg 89%
    01:00 +7°C° 0 mm 2 mps 759 mmHg 89%
    02:00 +7°C° 0 mm 2 mps 759 mmHg 88%
    03:00 +7°C° 0 mm 2 mps 759 mmHg 88%
    04:00 +8°C° 0 mm 3 mps 759 mmHg 84%
    05:00 +10°C° 0 mm 4 mps 759 mmHg 80%
    06:00 +11°C° 0 mm 4 mps 759 mmHg 76%
    07:00 +12°C° 0 mm 4 mps 759 mmHg 76%
    08:00 +12°C° 0 mm 4 mps 759 mmHg 76%
    09:00 +13°C° 0 mm 4 mps 759 mmHg 76%
    10:00 +13°C° 0.1 mm 5 mps 759 mmHg 73%
    11:00 +14°C° 0.1 mm 5 mps 759 mmHg 71%
    12:00 +15°C° 0.1 mm 5 mps 759 mmHg 69%
    13:00 +15°C° 0.1 mm 5 mps 759 mmHg 69%
    14:00 +15°C° 0.1 mm 5 mps 759 mmHg 70%
    15:00 +15°C° 0.1 mm 5 mps 759 mmHg 70%
    16:00 +15°C° 0.1 mm 5 mps 759 mmHg 72%
    17:00 +14°C° 0.1 mm 4 mps 759 mmHg 74%
    18:00 +14°C° 0.1 mm 4 mps 759 mmHg 77%
    19:00 +12°C° 0 mm 3 mps 759 mmHg 82%
    20:00 +11°C° 0 mm 3 mps 759 mmHg 87%
    21:00 +10°C° 0 mm 2 mps 760 mmHg 92%
    22:00 +9°C° 0 mm 2 mps 760 mmHg 93%
    23:00 +9°C° 0 mm 2 mps 760 mmHg 94%

    23 June, Saturday

    Time Temperature Precipitation Wind Pressure Humidity
    00:00 +8°C° 0 mm 2 mps 760 mmHg 95%
    01:00 +8°C° 0 mm 2 mps 760 mmHg 95%
    02:00 +9°C° 0 mm 1 mps 760 mmHg 95%
    03:00 +8°C° 0 mm 1 mps 760 mmHg 95%
    04:00 +9°C° 0 mm 1 mps 760 mmHg 92%
    05:00 +10°C° 0 mm 1 mps 760 mmHg 90%
    06:00 +12°C° 0 mm 2 mps 760 mmHg 87%
    07:00 +13°C° 0 mm 2 mps 760 mmHg 81%
    08:00 +14°C° 0 mm 2 mps 760 mmHg 74%
    09:00 +16°C° 0 mm 2 mps 760 mmHg 68%
    10:00 +16°C° 0 mm 3 mps 759 mmHg 68%
    11:00 +17°C° 0 mm 3 mps 759 mmHg 68%
    12:00 +17°C° 0 mm 3 mps 759 mmHg 68%
    13:00 +18°C° 0 mm 3 mps 759 mmHg 67%
    14:00 +18°C° 0 mm 4 mps 759 mmHg 66%
    15:00 +19°C° 0 mm 4 mps 758 mmHg 65%
    16:00 +18°C° 0 mm 3 mps 758 mmHg 68%
    17:00 +18°C° 0 mm 3 mps 758 mmHg 71%
    18:00 +17°C° 0 mm 3 mps 758 mmHg 74%
    19:00 +16°C° 0 mm 2 mps 758 mmHg 79%
    20:00 +14°C° 0 mm 2 mps 758 mmHg 84%
    21:00 +12°C° 0 mm 2 mps 758 mmHg 89%
    22:00 +12°C° 0 mm 1 mps 758 mmHg 90%
    23:00 +11°C° 0 mm 1 mps 758 mmHg 91%

    24 June, Sunday

    Time Temperature Precipitation Wind Pressure Humidity
    00:00 +11°C° 0 mm 1 mps 758 mmHg 93%
    01:00 +10°C° 0 mm 1 mps 758 mmHg 93%
    02:00 +10°C° 0 mm 1 mps 758 mmHg 94%
    03:00 +9°C° 0 mm 1 mps 758 mmHg 94%
    04:00 +10°C° 0 mm 1 mps 758 mmHg 91%
    05:00 +12°C° 0 mm 1 mps 758 mmHg 87%
    06:00 +13°C° 0 mm 1 mps 758 mmHg 84%
    07:00 +14°C° 0 mm 1 mps 758 mmHg 77%
    08:00 +16°C° 0 mm 2 mps 758 mmHg 70%
    09:00 +17°C° 0 mm 2 mps 758 mmHg 63%
    10:00 +18°C° 0 mm 2 mps 758 mmHg 60%
    11:00 +19°C° 0 mm 2 mps 758 mmHg 57%
    12:00 +20°C° 0 mm 3 mps 757 mmHg 55%
    13:00 +20°C° 0 mm 3 mps 757 mmHg 55%
    14:00 +21°C° 0 mm 3 mps 757 mmHg 56%
    15:00 +21°C° 0 mm 3 mps 757 mmHg 56%
    16:00 +20°C° 0 mm 3 mps 757 mmHg 61%
    17:00 +20°C° 0 mm 3 mps 757 mmHg 65%
    18:00 +19°C° 0 mm 3 mps 757 mmHg 69%
    19:00 +17°C° 0 mm 3 mps 757 mmHg 74%
    20:00 +15°C° 0 mm 2 mps 757 mmHg 79%
    21:00 +14°C° 0 mm 2 mps 757 mmHg 84%
    22:00 +13°C° 0 mm 2 mps 757 mmHg 86%
    23:00 +12°C° 0 mm 2 mps 757 mmHg 87%

    25 June, Monday

    Time Temperature Precipitation Wind Pressure Humidity
    00:00 +12°C° 0 mm 2 mps 757 mmHg 89%
    01:00 +12°C° 0 mm 2 mps 757 mmHg 90%
    02:00 +10°C° 0 mm 2 mps 757 mmHg 91%
    03:00 +10°C° 0 mm 2 mps 757 mmHg 92%
    04:00 +12°C° 0 mm 2 mps 757 mmHg 88%
    05:00 +13°C° 0 mm 2 mps 757 mmHg 84%
    06:00 +15°C° 0 mm 2 mps 757 mmHg 80%
    07:00 +16°C° 0 mm 2 mps 757 mmHg 74%
    08:00 +18°C° 0 mm 3 mps 757 mmHg 68%
    09:00 +20°C° 0 mm 3 mps 757 mmHg 63%
    10:00 +21°C° 0 mm 3 mps 757 mmHg 61%
    11:00 +22°C° 0 mm 3 mps 757 mmHg 59%
    12:00 +24°C° 0 mm 3 mps 756 mmHg 57%
    13:00 +23°C° 0 mm 4 mps 756 mmHg 57%
    14:00 +25°C° 0 mm 4 mps 756 mmHg 57%
    15:00 +25°C° 0 mm 4 mps 756 mmHg 57%
    16:00 +25°C° 0 mm 3 mps 756 mmHg 61%
    17:00 +24°C° 0 mm 3 mps 756 mmHg 65%
    18:00 +24°C° 0 mm 3 mps 755 mmHg 68%
    19:00 +21°C° 0 mm 3 mps 756 mmHg 73%
    20:00 +19°C° 0 mm 2 mps 756 mmHg 77%
    21:00 +17°C° 0 mm 2 mps 756 mmHg 82%
    22:00 +16°C° 0 mm 2 mps 756 mmHg 84%
    23:00 +16°C° 0 mm 2 mps 756 mmHg 86%
    Show more